Location: Monrovia
(34.7865°N, 86.7139°W)
Time: 23:47:07
(UTC+00:00)

GEOS 3 Rocket - Pass Details

Date: 14 July 2020
Orbit: 771 x 848 km, 115.0° (Epoch: 12 August)

Event Time Altitude Azimuth Distance (km) Brightness Sun altitude
Rises 03:47:51 0° 28° (NNE) 3,412 7.2 -26.3°
Reaches altitude 10° 03:50:12 10° 25° (NNE) 2,475 6.5 -26.5°
Maximum altitude 03:55:30 59° 307° (NW) 973 4.2 -27.1°
Enters shadow 03:58:53 22° 235° (SW) 1,748 5.3 -27.5°
